| time (UTC) | temp F | wind direction | speed MPH | gust MPH | rain 1hr in | rain 24hr in | rain mn in | humidity % | barometer mb |
| 20260504040510 | 47 | 222 | 0.0 | 0.0 | 0.00 | 0.00 | 0.00 | ||
| 20260504040011 | 47 | 222 | 0.0 | 0.0 | 0.00 | 0.00 | 0.00 | ||
| 20260504035513 | 48 | 222 | 0.0 | 0.0 | 0.00 | 0.00 | 0.00 | ||
| 20260504034510 | 51 | 222 | 0.0 | 0.0 | 0.00 | 0.00 | 0.00 | ||
| 20260504033512 | 49 | 222 | 0.0 | 0.0 | 0.00 | 0.00 | 0.00 | ||
| 20260504033014 | 48 | 222 | 0.0 | 0.0 | 0.00 | 0.00 | 0.00 | ||
| 20260504031017 | 51 | 222 | 0.0 | 0.0 | 0.00 | 0.00 | 0.00 | ||
| 20260504030518 | 49 | 222 | 0.0 | 0.0 | 0.00 | 0.00 | 0.00 | ||
| 20260504030019 | 50 | 222 | 0.0 | 0.0 | 0.00 | 0.00 | 0.00 | ||
| 20260504025518 | 51 | 222 | 0.0 | 0.0 | 0.00 | 0.00 | 0.00 | ||
| 20260504024521 | 51 | 222 | 0.0 | 0.0 | 0.00 | 0.00 | 0.00 | ||
| 20260504024022 | 52 | 222 | 0.0 | 0.0 | 0.00 | 0.00 | 0.00 | ||
| 20260504023524 | 52 | 222 | 0.0 | 0.0 | 0.00 | 0.00 | 0.00 | ||
| 20260504023021 | 51 | 222 | 0.0 | 0.0 | 0.00 | 0.00 | 0.00 | ||
| 20260504022522 | 52 | 222 | 0.0 | 0.0 | 0.00 | 0.00 | 0.00 | ||
| 20260504022023 | 50 | 222 | 0.0 | 0.0 | 0.00 | 0.00 | 0.00 | ||
| 20260504021524 | 51 | 222 | 0.0 | 0.0 | 0.00 | 0.00 | 0.00 | ||
| 20260504021026 | 52 | 222 | 0.0 | 0.0 | 0.00 | 0.00 | 0.00 | ||
| 20260504020523 | 52 | 222 | 0.0 | 0.0 | 0.00 | 0.00 | 0.00 | ||
| 20260504020025 | 51 | 222 | 0.0 | 0.0 | 0.00 | 0.00 | 0.00 | ||
| 20260504015526 | 50 | 222 | 0.0 | 0.0 | 0.00 | 0.00 | 0.00 | ||
| 20260504015028 | 49 | 222 | 0.0 | 0.0 | 0.00 | 0.00 | 0.00 | ||
| 20260504014529 | 50 | 222 | 0.0 | 0.0 | 0.00 | 0.00 | 0.00 | ||
| 20260504014027 | 52 | 222 | 0.0 | 0.0 | 0.00 | 0.00 | 0.00 | ||
| 20260504013528 | 52 | 222 | 0.0 | 0.0 | 0.00 | 0.00 | 0.00 | ||
| 20260504013029 | 53 | 222 | 0.0 | 0.0 | 0.00 | 0.00 | 0.00 | ||
| 20260504012531 | 54 | 222 | 0.0 | 0.0 | 0.00 | 0.00 | 0.00 | ||
| 20260504012032 | 52 | 222 | 0.0 | 0.0 | 0.00 | 0.00 | 0.00 | ||
| 20260504011530 | 54 | 222 | 0.0 | 0.0 | 0.00 | 0.00 | 0.00 | ||
| 20260504010533 | 52 | 222 | 0.0 | 0.0 | 0.00 | 0.00 | 0.00 | ||
| 20260504010034 | 52 | 222 | 0.0 | 0.0 | 0.00 | 0.00 | 0.00 | ||
| 20260504005535 | 52 | 222 | 0.0 | 0.0 | 0.00 | 0.00 | 0.00 | ||
| 20260504005033 | 52 | 222 | 0.0 | 0.0 | 0.00 | 0.00 | 0.00 | ||
| 20260504004534 | 52 | 222 | 0.0 | 0.0 | 0.00 | 0.00 | 0.00 | ||
| 20260504003537 | 52 | 222 | 0.0 | 0.0 | 0.00 | 0.00 | 0.00 | ||
| 20260504003039 | 53 | 222 | 0.0 | 0.0 | 0.00 | 0.00 | 0.00 | ||
| 20260504002537 | 53 | 222 | 0.0 | 0.0 | 0.00 | 0.00 | 0.00 | ||
| 20260504002039 | 53 | 222 | 0.0 | 0.0 | 0.00 | 0.00 | 0.00 | ||
| 20260504001540 | 53 | 222 | 0.0 | 0.0 | 0.00 | 0.00 | 0.00 | ||
| 20260504001042 | 54 | 222 | 0.0 | 0.0 | 0.00 | 0.00 | 0.00 | ||
| 20260504000041 | 55 | 225 | 0.0 | 0.0 | 0.00 | 0.00 | 0.00 | ||
| 20260503235542 | 56 | 225 | 0.0 | 0.0 | 0.00 | 0.00 | 0.00 | ||
| 20260503235043 | 57 | 221 | 1.0 | 2.0 | 0.00 | 0.00 | 0.00 | ||
| 20260503233046 | 57 | 210 | 0.0 | 0.0 | 0.00 | 0.00 | 0.00 | ||
| 20260503232049 | 58 | 210 | 0.0 | 0.0 | 0.00 | 0.00 | 0.00 | ||
| 20260503231550 | 59 | 285 | 3.0 | 3.0 | 0.00 | 0.00 | 0.00 | ||
| 20260503231049 | 59 | 204 | 2.0 | 3.0 | 0.00 | 0.00 | 0.00 | ||
| 20260503230051 | 59 | 225 | 0.0 | 0.0 | 0.00 | 0.00 | 0.00 | ||
| 20260503225553 | 59 | 255 | 2.0 | 1.0 | 0.00 | 0.00 | 0.00 | ||
| 20260503225054 | 59 | 240 | 1.0 | 2.0 | 0.00 | 0.00 | 0.00 | ||
| 20260503224553 | 60 | 238 | 4.0 | 3.0 | 0.00 | 0.00 | 0.00 | ||
| 20260503223556 | 60 | 236 | 6.0 | 3.0 | 0.00 | 0.00 | 0.00 | ||
| 20260503223057 | 61 | 271 | 6.0 | 5.0 | 0.00 | 0.00 | 0.00 | ||
| 20260503222559 | 61 | 283 | 11.0 | 10.0 | 0.00 | 0.00 | 0.00 | ||
| 20260503222056 | 62 | 274 | 8.0 | 10.0 | 0.00 | 0.00 | 0.00 | ||
| 20260503221558 | 62 | 252 | 10.0 | 10.0 | 0.00 | 0.00 | 0.00 | ||
| 20260503221059 | 62 | 276 | 10.0 | 9.0 | 0.00 | 0.00 | 0.00 | ||
| 20260503220600 | 62 | 238 | 11.0 | 16.0 | 0.00 | 0.00 | 0.00 | ||
| 20260503215559 | 62 | 285 | 9.0 | 10.0 | 0.00 | 0.00 | 0.00 | ||
| 20260503215101 | 62 | 266 | 9.0 | 13.0 | 0.00 | 0.00 | 0.00 | ||
| 20260503214103 | 62 | 256 | 8.0 | 10.0 | 0.00 | 0.00 | 0.00 | ||
| 20260503213605 | 63 | 274 | 11.0 | 11.0 | 0.00 | 0.00 | 0.00 | ||
| 20260503213102 | 63 | 239 | 10.0 | 8.0 | 0.00 | 0.00 | 0.00 | ||
| 20260503212604 | 63 | 297 | 9.0 | 6.0 | 0.00 | 0.00 | 0.00 | ||
| 20260503211606 | 63 | 257 | 9.0 | 7.0 | 0.00 | 0.00 | 0.00 | ||
| 20260503211108 | 64 | 255 | 7.0 | 9.0 | 0.00 | 0.00 | 0.00 | ||
| 20260503210606 | 64 | 259 | 8.0 | 6.0 | 0.00 | 0.00 | 0.00 | ||
| 20260503210107 | 63 | 248 | 5.0 | 10.0 | 0.00 | 0.00 | 0.00 | ||
| 20260503205609 | 64 | 260 | 5.0 | 7.0 | 0.00 | 0.00 | 0.00 | ||
| 20260503205110 | 64 | 246 | 5.0 | 4.0 | 0.00 | 0.00 | 0.00 | ||
| 20260503204612 | 64 | 301 | 5.0 | 5.0 | 0.00 | 0.00 | 0.00 | ||
| 20260503204109 | 64 | 259 | 5.0 | 5.0 | 0.00 | 0.00 | 0.00 | ||
| 20260503203610 | 63 | 277 | 5.0 | 5.0 | 0.00 | 0.00 | 0.00 | ||
| 20260503203112 | 63 | 276 | 7.0 | 6.0 | 0.00 | 0.00 | 0.00 | ||
| 20260503202613 | 63 | 280 | 6.0 | 4.0 | 0.00 | 0.00 | 0.00 | ||
| 20260503202114 | 63 | 273 | 6.0 | 8.0 | 0.00 | 0.00 | 0.00 | ||
| 20260503201611 | 62 | 253 | 6.0 | 5.0 | 0.00 | 0.00 | 0.00 | ||
| 20260503201112 | 61 | 288 | 3.0 | 3.0 | 0.00 | 0.00 | 0.00 | ||
| 20260503200613 | 61 | 211 | 3.0 | 2.0 | 0.00 | 0.00 | 0.00 | ||
| 20260503200115 | 60 | 215 | 3.0 | 4.0 | 0.00 | 0.00 | 0.00 | ||
| 20260503195616 | 61 | 221 | 4.0 | 3.0 | 0.00 | 0.00 | 0.00 | ||
| 20260503195115 | 62 | 217 | 4.0 | 4.0 | 0.00 | 0.00 | 0.00 | ||
| 20260503194117 | 61 | 242 | 0.0 | 0.0 | 0.00 | 0.00 | 0.00 | ||
| 20260503193619 | 59 | 242 | 0.0 | 0.0 | 0.00 | 0.00 | 0.00 | ||
| 20260503192120 | 61 | 242 | 0.0 | 0.0 | 0.00 | 0.00 | 0.00 | ||
| 20260503191122 | 61 | 242 | 0.0 | 0.0 | 0.00 | 0.00 | 0.00 | ||
| 20260503190624 | 61 | 242 | 0.0 | 0.0 | 0.00 | 0.00 | 0.00 | ||
| 20260503190121 | 61 | 242 | 0.0 | 0.0 | 0.00 | 0.00 | 0.00 | ||
| 20260503185622 | 61 | 242 | 0.0 | 0.0 | 0.00 | 0.00 | 0.00 | ||
| 20260503185124 | 65 | 242 | 0.0 | 0.0 | 0.00 | 0.00 | 0.00 | ||
| 20260503183623 | 65 | 242 | 0.0 | 0.0 | 0.00 | 0.00 | 0.00 | ||
| 20260503183124 | 66 | 242 | 0.0 | 0.0 | 0.00 | 0.00 | 0.00 | ||
| 20260503182625 | 66 | 242 | 0.0 | 0.0 | 0.00 | 0.00 | 0.00 | ||
| 20260503181627 | 67 | 269 | 2.0 | 1.0 | 0.00 | 0.00 | 0.00 | ||
| 20260503180627 | 67 | 277 | 2.0 | 2.0 | 0.00 | 0.00 | 0.00 | ||
| 20260503180128 | 68 | 285 | 3.0 | 2.0 | 0.00 | 0.00 | 0.00 | ||
| 20260503175629 | 67 | 291 | 3.0 | 3.0 | 0.00 | 0.00 | 0.00 | ||
| 20260503175131 | 68 | 274 | 2.0 | 2.0 | 0.00 | 0.00 | 0.00 | ||
| 20260503174629 | 69 | 277 | 2.0 | 1.0 | 0.00 | 0.00 | 0.00 | ||
| 20260503174130 | 69 | 267 | 3.0 | 2.0 | 0.00 | 0.00 | 0.00 | ||
| 20260503173631 | 70 | 311 | 3.0 | 2.0 | 0.00 | 0.00 | 0.00 | ||
| 20260503173132 | 71 | 307 | 3.0 | 3.0 | 0.00 | 0.00 | 0.00 | ||
| 20260503171633 | 73 | 300 | 4.0 | 4.0 | 0.00 | 0.00 | 0.00 | ||
| 20260503171134 | 76 | 300 | 5.0 | 6.0 | 0.00 | 0.00 | 0.00 | ||
| 20260503170635 | 75 | 295 | 7.0 | 4.0 | 0.00 | 0.00 | 0.00 | ||
| 20260503170136 | 75 | 278 | 7.0 | 9.0 | 0.00 | 0.00 | 0.00 | ||
| 20260503140143 | 80 | 340 | 5.0 | 8.0 | 0.00 | 0.00 | 0.00 | ||
| 20260503131144 | 86 | 98 | 4.0 | 3.0 | 0.00 | 0.00 | 0.00 | ||
| 20260503130644 | 82 | 41 | 3.0 | 2.0 | 0.00 | 0.00 | 0.00 | ||
| 20260503130145 | 82 | 25 | 5.0 | 5.0 | 0.00 | 0.00 | 0.00 | ||
| 20260503110642 | 76 | 330 | 10.0 | 9.0 | 0.00 | 0.00 | 0.00 | ||
| 20260503080655 | 70 | 180 | 0.0 | 3.0 | 0.00 | 0.00 | 0.00 | ||
| 20260503080156 | 69 | 149 | 1.0 | 4.0 | 0.00 | 0.00 | 0.00 | ||
| 20260503071700 | 67 | 203 | 4.0 | 2.0 | 0.00 | 0.00 | 0.00 | ||
| 20260503071201 | 66 | 217 | 2.0 | 3.0 | 0.00 | 0.00 | 0.00 | ||
| 20260503070702 | 68 | 163 | 3.0 | 3.0 | 0.00 | 0.00 | 0.00 | ||
| 20260503060209 | 59 | 210 | 0.0 | 0.0 | 0.00 | 0.00 | 0.00 | ||
| 20260503054713 | 56 | 210 | 0.0 | 0.0 | 0.00 | 0.00 | 0.00 | ||
| 20260503054211 | 54 | 210 | 1.0 | 0.0 | 0.00 | 0.00 | 0.00 | ||
| 20260503053712 | 53 | 218 | 3.0 | 2.0 | 0.00 | 0.00 | 0.00 | ||
| 20260503053214 | 50 | 225 | 6.0 | 6.0 | 0.00 | 0.00 | 0.00 | ||
| 20260503052715 | 51 | 219 | 0.0 | 3.0 | 0.00 | 0.00 | 0.00 | ||
| 20260503052217 | 52 | 153 | 0.0 | 0.0 | 0.00 | 0.00 | 0.00 | ||
| 20260503051715 | 54 | 160 | 0.0 | 0.0 | 0.00 | 0.00 | 0.00 | ||
| 20260503051217 | 51 | 160 | 0.0 | 0.0 | 0.00 | 0.00 | 0.00 | ||
| 20260503050718 | 51 | 160 | 0.0 | 0.0 | 0.00 | 0.00 | 0.00 | ||
| 20260503050220 | 52 | 160 | 0.0 | 0.0 | 0.00 | 0.00 | 0.00 | ||
| 20260503045721 | 50 | 160 | 0.0 | 0.0 | 0.00 | 0.00 | 0.00 | ||
| 20260503045220 | 49 | 160 | 0.0 | 0.0 | 0.00 | 0.00 | 0.00 | ||
| 20260503044721 | 50 | 160 | 0.0 | 0.0 | 0.00 | 0.00 | 0.00 | ||
| 20260503044222 | 49 | 160 | 0.0 | 0.0 | 0.00 | 0.00 | 0.00 | ||
| 20260503043724 | 48 | 160 | 0.0 | 0.0 | 0.00 | 0.00 | 0.00 | ||
| 20260503042723 | 46 | 160 | 0.0 | 0.0 | 0.00 | 0.00 | 0.00 | ||
| 20260503042224 | 45 | 160 | 0.0 | 0.0 | 0.00 | 0.00 | 0.00 | ||
| 20260503041726 | 44 | 160 | 0.0 | 0.0 | 0.00 | 0.00 | 0.00 | ||
| 20260503041227 | 45 | 160 | 0.0 | 0.0 | 0.00 | 0.00 | 0.00 |